sat.trackr.live / text

‹ back to catalog

STARLINK-36055

NORAD 66846 · 2025-280AB

PAYLOAD ACTIVE UNKNOWN

§ Identity

Operator
Country
US
Launch date
2025-12-02
Launch site
AFWTR
Launch vehicle
Mass (kg)
RCS (m²)

Purposes: comms

External: N2YO · Heavens-Above · Gunter

§ Orbital elements

Epoch: 2026-09-20T07:10:38.186112Z

Period
96.11 min
Inclination
70.0004°
Eccentricity
0.0003094
Mean motion
14.98343279 rev/d
Perigee alt
569.9 km
Apogee alt
574.2 km
Semi-major
6,950.2 km
B*
3.4253e-4
RAAN
203.8897°
Arg perigee
264.8311°
Mean anomaly
95.2495°
Rev number
4,523

§ Raw data

STARLINK-360551 66846U 25280AB  26263.29905308  .00003998  00000+0  34253-3 0  99902 66846  70.0004 203.8897 0003094 264.8311  95.2495 14.98343279 45239

JSON: /api/v1/satellites/66846 · /tle

For live sub-satellite position, see the globe view (requires WebGL).

§ Visibility from observer

Set your observer location to see the next 7 days of passes ≥ 10°. The values pass through the URL so the page stays shareable.

No JS? Fill the form by hand. The geolocation button needs JavaScript.